Petersburg, AK

12:53 PM AKST on January 17, 2017 (GMT -0900)
Johnson Petersburg

Weather History for PAPG - June, 2013

Change the Weather History Date:

Thursday, June 13, 2013

  Actual Average Record
Temperature  
Mean Temperature 54 °F -  
Max Temperature 59 °F 57 °F 73 °F (2006)
Min Temperature 48 °F 45 °F 40 °F (1986)
Degree Days  
Heating Degree Days 12    
Growing Degree Days 4 (Base 50)    
Moisture  
Dew Point 45 °F    
Average Humidity 73    
Maximum Humidity 87    
Minimum Humidity 59    
Precipitation  
Precipitation 0.00 in - - ()
Sea Level Pressure  
Sea Level Pressure 30.15 in    
Wind  
Wind Speed 4 mph (SW)    
Max Wind Speed 12 mph    
Max Gust Speed -    
Visibility 10 miles    
Events      
Averages and records for this station are not official NWS values.
T = Trace of Precipitation, MM = Missing Value Source: NWS Daily Summary

Daily Weather History Graph

Daily Weather History Graph

Search for Another Location

Airport or City:

Trip Planner

Search our weather history database for the weather conditions in past years. The results will help you decide how hot, cold, wet, or windy it might be!

Date:

Astronomy

Jun. 13, 2013 Rise Set
Actual Time 3:59 AM AKDT 9:45 PM AKDT
Civil Twilight 2:52 AM AKDT 10:51 PM AKDT
Nautical Twilight 1:24 AM AKDT 12:19 AM AKDT
Astronomical Twilight Sun does not rise Sun does not rise
Moon 9:35 AM AKDT (6/13) 11:55 PM AKDT (6/13)
Length of Visible Light 19h 58m
Length of Day
17h 46m
Waxing Crescent, 23% of the Moon is Illuminated
Jun 13
Waxing Crescent
Jun 16
First Quarter
Jun 23
Full
Jun 29
Last Quarter
Jul 7
New

Hourly Weather History & Observations

Time (AKDT) Temp. Dew Point Humidity Pressure Visibility Wind Dir Wind Speed Gust Speed Precip Events Conditions
12:16 AM 51.8 °F 46.4 °F 82% 30.10 in 10.0 mi Calm Calm - N/A   Mostly Cloudy
12:36 AM 53.6 °F 46.4 °F 77% 30.10 in 10.0 mi Calm Calm - N/A   Mostly Cloudy
12:56 AM 53.6 °F 46.4 °F 77% 30.11 in 10.0 mi WSW 3.5 mph - N/A   Mostly Cloudy
1:16 AM 51.8 °F 44.6 °F 76% 30.11 in 10.0 mi West 4.6 mph - N/A   Partly Cloudy
1:36 AM 51.8 °F 46.4 °F 82% 30.12 in 10.0 mi Calm Calm - N/A   Clear
1:56 AM 51.8 °F 44.6 °F 76% 30.12 in 10.0 mi Calm Calm - N/A   Clear
2:16 AM 50.0 °F 44.6 °F 82% 30.12 in 10.0 mi West 3.5 mph - N/A   Partly Cloudy
2:36 AM 48.2 °F 44.6 °F 87% 30.12 in 10.0 mi Calm Calm - N/A   Clear
2:56 AM 48.2 °F 44.6 °F 87% 30.13 in 10.0 mi ESE 3.5 mph - N/A   Clear
3:16 AM 50.0 °F 44.6 °F 82% 30.13 in 10.0 mi West 4.6 mph - N/A   Clear
3:36 AM 50.0 °F 44.6 °F 82% 30.14 in 10.0 mi SSW 5.8 mph - N/A   Scattered Clouds
3:56 AM 50.0 °F 44.6 °F 82% 30.14 in 10.0 mi WSW 3.5 mph - N/A   Mostly Cloudy
4:16 AM 50.0 °F 44.6 °F 82% 30.13 in 10.0 mi SW 4.6 mph - N/A   Scattered Clouds
4:36 AM 51.8 °F 44.6 °F 76% 30.14 in 10.0 mi SW 8.1 mph - N/A   Mostly Cloudy
4:56 AM 51.8 °F 44.6 °F 76% 30.14 in 10.0 mi SW 11.5 mph - N/A   Overcast
5:16 AM 51.8 °F 44.6 °F 76% 30.14 in 10.0 mi WSW 11.5 mph - N/A   Overcast
5:36 AM 51.8 °F 44.6 °F 76% 30.14 in 10.0 mi WSW 8.1 mph - N/A   Overcast
5:56 AM 51.8 °F 44.6 °F 76% 30.14 in 10.0 mi WSW 6.9 mph - N/A   Overcast
6:16 AM 51.8 °F 44.6 °F 76% 30.14 in 10.0 mi WSW 10.4 mph - N/A   Overcast
6:36 AM 51.8 °F 44.6 °F 76% 30.15 in 10.0 mi WSW 6.9 mph - N/A   Overcast
6:56 AM 51.8 °F 44.6 °F 76% 30.15 in 10.0 mi WSW 8.1 mph - N/A   Mostly Cloudy
7:16 AM 51.8 °F 44.6 °F 76% 30.15 in 10.0 mi SW 8.1 mph - N/A   Mostly Cloudy
7:36 AM 51.8 °F 44.6 °F 76% 30.15 in 10.0 mi SSW 4.6 mph - N/A   Mostly Cloudy
7:56 AM 51.8 °F 44.6 °F 76% 30.15 in 10.0 mi SW 4.6 mph - N/A   Overcast
8:16 AM 53.6 °F 44.6 °F 72% 30.15 in 10.0 mi SW 6.9 mph - N/A   Overcast
8:36 AM 51.8 °F 44.6 °F 76% 30.15 in 10.0 mi SW 4.6 mph - N/A   Overcast
8:56 AM 53.6 °F 44.6 °F 72% 30.15 in 10.0 mi WSW 4.6 mph - N/A   Overcast
9:16 AM 53.6 °F 44.6 °F 72% 30.15 in 10.0 mi SW 5.8 mph - N/A   Overcast
9:36 AM 53.6 °F 44.6 °F 72% 30.15 in 10.0 mi WSW 5.8 mph - N/A   Overcast
9:56 AM 53.6 °F 44.6 °F 72% 30.15 in 10.0 mi SW 5.8 mph - N/A   Overcast
10:16 AM 55.4 °F 44.6 °F 67% 30.15 in 10.0 mi WSW 9.2 mph - N/A   Overcast
10:36 AM 55.4 °F 44.6 °F 67% 30.16 in 10.0 mi SW 10.4 mph - N/A   Overcast
10:53 AM 53.6 °F 44.6 °F 72% 30.15 in 10.0 mi WSW 11.5 mph - N/A   Overcast
10:56 AM - - N/A% 30.16 in 10.0 mi WSW 6.9 mph - N/A   Mostly Cloudy
11:16 AM 55.4 °F 44.6 °F 67% 30.17 in 10.0 mi SW 6.9 mph - N/A   Mostly Cloudy
11:36 AM 55.4 °F 44.6 °F 67% 30.17 in 10.0 mi SSW 8.1 mph - N/A   Mostly Cloudy
11:56 AM 55.4 °F 44.6 °F 67% 30.17 in 10.0 mi SW 10.4 mph - N/A   Mostly Cloudy
12:16 PM 55.4 °F 44.6 °F 67% 30.17 in 10.0 mi West 8.1 mph - N/A   Mostly Cloudy
12:36 PM 57.2 °F 44.6 °F 63% 30.17 in 10.0 mi West 5.8 mph - N/A   Mostly Cloudy
12:56 PM 57.2 °F 44.6 °F 63% 30.17 in 10.0 mi West 6.9 mph - N/A   Overcast
1:16 PM 59.0 °F 44.6 °F 59% 30.17 in 10.0 mi South 3.5 mph - N/A   Overcast
1:36 PM 59.0 °F 44.6 °F 59% 30.17 in 10.0 mi WNW 5.8 mph - N/A   Overcast
1:56 PM 59.0 °F 44.6 °F 59% 30.16 in 10.0 mi Calm Calm - N/A   Mostly Cloudy
2:16 PM 57.2 °F 46.4 °F 67% 30.16 in 10.0 mi NNE 9.2 mph - N/A   Mostly Cloudy
2:36 PM 55.4 °F 46.4 °F 72% 30.16 in 10.0 mi NE 6.9 mph - N/A   Mostly Cloudy
2:56 PM 55.4 °F 46.4 °F 72% 30.16 in 10.0 mi NE 5.8 mph - N/A   Mostly Cloudy
3:16 PM 57.2 °F 46.4 °F 67% 30.16 in 10.0 mi East 5.8 mph - N/A   Mostly Cloudy
3:36 PM 57.2 °F 46.4 °F 67% 30.16 in 10.0 mi ENE 4.6 mph - N/A   Mostly Cloudy
3:56 PM 57.2 °F 48.2 °F 72% 30.15 in 10.0 mi NE 8.1 mph - N/A   Mostly Cloudy
4:16 PM 57.2 °F 46.4 °F 67% 30.15 in 10.0 mi ENE 5.8 mph - N/A   Mostly Cloudy
4:36 PM 57.2 °F 46.4 °F 67% 30.15 in 10.0 mi NE 5.8 mph - N/A   Mostly Cloudy
4:56 PM 55.4 °F 46.4 °F 72% 30.14 in 10.0 mi ENE 3.5 mph - N/A   Mostly Cloudy
5:16 PM 59.0 °F 46.4 °F 63% 30.14 in 10.0 mi NE 4.6 mph - N/A   Mostly Cloudy
5:36 PM - - N/A% - - North - - N/A   Unknown
5:47 PM 59.0 °F 46.4 °F 63% 30.14 in 10.0 mi NE 4.6 mph - N/A   Mostly Cloudy
6:48 PM 57.2 °F 44.6 °F 63% 30.13 in 10.0 mi ENE 4.6 mph - N/A   Scattered Clouds
7:48 PM 53.6 °F 44.6 °F 72% 30.13 in 10.0 mi ENE 4.6 mph - N/A   Scattered Clouds
8:16 PM 53.6 °F 46.4 °F 77% 30.16 in 10.0 mi East 4.6 mph - N/A   Scattered Clouds
8:36 PM 51.8 °F 46.4 °F 82% 30.16 in 10.0 mi East 5.8 mph - N/A   Scattered Clouds
8:56 PM 51.8 °F 44.6 °F 76% 30.16 in 10.0 mi ESE 5.8 mph - N/A   Overcast
9:16 PM 51.8 °F 44.6 °F 76% 30.16 in 10.0 mi East 5.8 mph - N/A   Overcast
9:36 PM 51.8 °F 44.6 °F 76% 30.16 in 10.0 mi East 4.6 mph - N/A   Overcast
9:56 PM 51.8 °F 44.6 °F 76% 30.17 in 10.0 mi ESE 3.5 mph - N/A   Overcast
10:16 PM 51.8 °F 44.6 °F 76% 30.17 in 10.0 mi Calm Calm - N/A   Overcast
10:36 PM 51.8 °F 44.6 °F 76% 30.16 in 10.0 mi Calm Calm - N/A   Overcast
10:56 PM 53.6 °F 44.6 °F 72% 30.17 in 10.0 mi Calm Calm - N/A   Overcast
11:16 PM 51.8 °F 44.6 °F 76% 30.17 in 10.0 mi Calm Calm - N/A   Overcast
11:36 PM 51.8 °F 44.6 °F 76% 30.17 in 10.0 mi Calm Calm - N/A   Overcast
11:56 PM 51.8 °F 44.6 °F 76% 30.17 in 10.0 mi Calm Calm - N/A   Overcast